Tracking 23764 objects as of 17-Oct-2021
HD Live streaming from Space Station
objects crossing your sky now

JCSAT 18

Track JCSAT 18 now!


NORAD ID: 44868
Int'l Code: 2019-091A
Perigee: 35,789.9 km
Apogee: 35,797.3 km
Inclination: 0.0 °
Period: 1,436.1 minutes
Semi major axis: 42164 km
RCS: Unknown
Launch date: December 17, 2019
Source: Japan (JPN)
Launch site: AIR FORCE EASTERN TEST RANGE (AFETR)
aabbcc
Your satellite tracking list
Your tracking list is empty




NASA's NSSDC Master Catalog

Two Line Element Set (TLE):
1 44868U 19091A   21289.35991024 -.00000218  00000-0  00000-0 0  9997
2 44868   0.0217 278.3113 0000872 295.5748  90.7828  1.00272222  6923
Source of the keplerian elements: AFSPC